TimeCDT,TemperatureF,Dew PointF,Humidity,Sea Level PressureIn,VisibilityMPH,Wind Direction,Wind SpeedMPH,Gust SpeedMPH,PrecipitationIn,Events,Conditions,WindDirDegrees,DateUTC
12:52 AM,62.1,55.0,78,29.88,10.0,SSE,10.4,-,N/A,,Clear,150,2013-09-24 05:52:00
1:52 AM,62.1,55.0,78,29.87,10.0,SSE,11.5,-,N/A,,Clear,160,2013-09-24 06:52:00
2:52 AM,62.1,55.0,78,29.86,10.0,SSE,11.5,-,N/A,,Clear,160,2013-09-24 07:52:00
3:52 AM,62.1,55.0,78,29.85,10.0,SSE,11.5,-,N/A,,Clear,160,2013-09-24 08:52:00
4:52 AM,61.0,55.9,83,29.85,10.0,SSE,11.5,-,0.03,,Scattered Clouds,160,2013-09-24 09:52:00
5:52 AM,61.0,55.9,83,29.85,10.0,South,10.4,-,N/A,,Clear,170,2013-09-24 10:52:00
6:52 AM,60.1,55.0,83,29.85,10.0,South,11.5,-,N/A,,Clear,170,2013-09-24 11:52:00
7:52 AM,61.0,55.9,83,29.85,10.0,South,8.1,-,N/A,,Clear,180,2013-09-24 12:52:00
8:52 AM,64.9,57.9,78,29.84,10.0,SSW,10.4,-,N/A,,Clear,210,2013-09-24 13:52:00
9:52 AM,70.0,55.9,61,29.83,10.0,SW,15.0,-,N/A,,Clear,230,2013-09-24 14:52:00
10:52 AM,72.0,55.9,57,29.83,10.0,SW,13.8,-,N/A,,Clear,230,2013-09-24 15:52:00
11:52 AM,73.0,55.0,53,29.84,10.0,West,11.5,-,N/A,,Clear,270,2013-09-24 16:52:00
12:52 PM,73.9,55.0,52,29.83,10.0,WSW,11.5,-,N/A,,Clear,240,2013-09-24 17:52:00
1:52 PM,75.9,55.9,50,29.82,10.0,West,8.1,-,N/A,,Partly Cloudy,260,2013-09-24 18:52:00
2:52 PM,75.9,55.0,48,29.81,10.0,West,10.4,-,N/A,,Scattered Clouds,260,2013-09-24 19:52:00
3:52 PM,75.0,55.9,51,29.82,10.0,West,10.4,-,N/A,,Overcast,260,2013-09-24 20:52:00
4:52 PM,73.0,57.0,57,29.83,10.0,WNW,9.2,-,N/A,,Overcast,290,2013-09-24 21:52:00
5:52 PM,72.0,57.0,59,29.83,10.0,WNW,6.9,-,N/A,,Overcast,300,2013-09-24 22:52:00
6:52 PM,71.1,57.9,63,29.83,10.0,Calm,Calm,-,N/A,,Overcast,0,2013-09-24 23:52:00
7:52 PM,69.1,59.0,70,29.82,10.0,West,3.5,-,N/A,,Overcast,270,2013-09-25 00:52:00
8:52 PM,66.0,60.1,81,29.82,10.0,SW,3.5,-,N/A,,Mostly Cloudy,230,2013-09-25 01:52:00
9:52 PM,66.0,57.0,73,29.83,10.0,WNW,5.8,-,N/A,,Overcast,300,2013-09-25 02:52:00
10:52 PM,64.0,55.0,73,29.83,10.0,West,5.8,-,N/A,,Clear,280,2013-09-25 03:52:00
11:52 PM,63.0,55.0,75,29.83,10.0,WNW,4.6,-,N/A,,Partly Cloudy,290,2013-09-25 04:52:00